SES-15 (42709 NORAD) Tracking and Keplerian Element Data

This shows tracking and keplerian element data for the satellite.

Feedback or suggestion? Click here.




ElementValue
Catalog42709
NameSES-15
Epoch Orbit637
Epoch Day319.2080604
Epoch Year2018
RAAN304.3067
Inclination0.0159
Eccentricity9.36E-05
Argument of Perigee267.7152
Mean Anonmoly148.0014
Mean Motion1.00271365
Decay Rate6.2E-07
L11 42709U 17026A 18319.20806040 .00000062 00000-0 00000-0 0 9998
L22 42709 0.0159 304.3067 0000936 267.7152 148.0014 1.00271365 6379

Live tracking and technical data element details for SES-15 (NORAD 42709). SES-15 can be tracked NOW for your location showing map with azimuth and elevation plus other details from your city location.

Track the satellite on the map from your city or location and see movement details for azimuth, elevation, latitude, longitude, range, height, and movement on the map or in text.







IsCatalogInMostPopularTable: catalog: 42709, numindb: 143
Update: records affected: 1



GetName: 42709 SES-15

Hit Count: updated at: Fri, 16 Nov 2018 09:29:25 GMT